This demonstration page uses our WeatherBlox Daily Observations layout. Learn more.

Left ArrowRight Arrow

Hourly Observations for July 12, 2017

Temp ( °F °C ) Dew Point ( °F °C ) Humidity (%) Winds ( mph kmh ) Pressure ( in mb ) Visibility ( mi km ) Precip ( " mm )
12:53 am 00:53 Clear 76 24.4 52 11.1 43 43 NW 5 7 29.83 1010 10 16 0.00 0.00
1:53 am 01:53 Clear 75 23.9 50 10 41 41 Calm 29.84 1010 10 16 0.00 0.00
2:53 am 02:53 Clear 75 23.9 51 10.6 43 43 Calm 29.85 1011 10 16 0.00 0.00
3:53 am 03:53 Clear 71 21.7 52 11.1 51 51 Calm 29.85 1011 10 16 0.00 0.00
4:53 am 04:53 Clear 69 20.6 51 10.6 53 53 NE 3 6 29.87 1011 10 16 0.00 0.00
5:53 am 05:53 Sunny 68 20 52 11.1 57 57 Calm 29.87 1012 10 16 0.00 0.00
6:53 am 06:53 Sunny 71 21.7 53 11.7 53 53 Calm 29.88 1012 10 16 0.00 0.00
7:53 am 07:53 Sunny 77 25 52 11.1 42 42 VRB 3 6 29.88 1012 10 16 0.00 0.00
8:53 am 08:53 Sunny 81 27.2 50 10 34 34 Calm 29.89 1012 10 16 0.00 0.00
9:53 am 09:53 Sunny 84 28.9 53 11.7 34 34 Calm 29.89 1012 10 16 0.00 0.00
10:53 am 10:53 Sunny 87 30.6 50 10 28 28 Calm 29.88 1012 10 16 0.00 0.00
11:53 am 11:53 Sunny 93 33.9 50 10 23 23 SW 3 6 29.87 1012 10 16 0.00 0.00
12:53 pm 12:53 Sunny 94 34.4 48 8.9 21 21 Calm 29.86 1011 10 16 0.00 0.00
1:53 pm 13:53 Sunny 98 36.7 46 7.8 17 17 SSE 7 11 29.85 1011 10 16 0.00 0.00
2:53 pm 14:53 Sunny 99 37.2 46 7.8 16 16 SSE 9 15 29.83 1010 10 16 0.00 0.00
3:53 pm 15:53 Sunny 100 37.8 41 5 13 13 SSE 14 22 29.81 1010 10 16 0.00 0.00
4:53 pm 16:53 Sunny 101 38.3 42 5.6 13 13 SSE 14 22 29.80 1009 10 16 0.00 0.00
5:53 pm 17:53 Sunny 100 37.8 42 5.6 14 14 S 10 17 29.79 1009 10 16 0.00 0.00
6:53 pm 18:53 Sunny 98 36.7 44 6.7 16 16 SSW 10 17 29.78 1009 10 16 0.00 0.00
7:53 pm 19:53 Sunny 95 35 46 7.8 19 19 S 10 17 29.79 1009 10 16 0.00 0.00
8:53 pm 20:53 Clear 89 31.7 47 8.3 23 23 S 6 9 29.80 1009 10 16 0.00 0.00
9:53 pm 21:53 Clear 83 28.3 50 10 32 32 E 5 7 29.83 1010 10 16 0.00 0.00
10:53 pm 22:53 Clear 83 28.3 53 11.7 36 36 Calm 29.85 1011 10 16 0.00 0.00
11:53 pm 23:53 Clear 80 26.7 56 13.3 44 44 Calm 29.86 1011 10 16 0.00 0.00

Powered by AerisWeather